When you browse on this site, cookies collect data to enhance your experience and personalize the content and advertising you see.
Visit our Privacy Policy to learn more. By continuing to use the site, you agree to this use of cookies and data.
  • In Switzerland
  • List of Countries
  • For 7 days
  • Water Temperature
  • Satellite Maps
  • Weather Map
  • Weather Widgets
  • user-avatar
    Login

    Hourly Weather Sidi Bu-l-Abbas

    Today, 20 March, Wednesday

    Time Temperature Precipitation Wind Pressure Humidity
    00:00 +7°C° 0 mm 1 mps 724 mmHg 95%
    01:00 +7°C° 0.1 mm 1 mps 724 mmHg 93%
    02:00 +7°C° 0.1 mm 2 mps 724 mmHg 91%
    03:00 +7°C° 0.1 mm 2 mps 724 mmHg 89%
    04:00 +7°C° 0.1 mm 2 mps 724 mmHg 90%
    05:00 +6°C° 0.1 mm 2 mps 724 mmHg 91%
    06:00 +6°C° 0.1 mm 2 mps 724 mmHg 92%
    07:00 +7°C° 0.1 mm 2 mps 725 mmHg 84%
    08:00 +8°C° 0.1 mm 3 mps 725 mmHg 75%
    09:00 +10°C° 0.1 mm 4 mps 725 mmHg 67%
    10:00 +11°C° 0.1 mm 4 mps 726 mmHg 61%
    11:00 +12°C° 0.1 mm 4 mps 726 mmHg 55%
    12:00 +13°C° 0.1 mm 5 mps 726 mmHg 49%
    13:00 +13°C° 0.2 mm 5 mps 725 mmHg 51%
    14:00 +13°C° 0.2 mm 6 mps 725 mmHg 53%
    15:00 +11°C° 0.2 mm 7 mps 724 mmHg 54%
    16:00 +11°C° 0.3 mm 6 mps 724 mmHg 58%
    17:00 +10°C° 0.3 mm 6 mps 724 mmHg 62%
    18:00 +9°C° 0.3 mm 6 mps 724 mmHg 67%
    19:00 +8°C° 0 mm 5 mps 725 mmHg 71%
    20:00 +7°C° 0 mm 3 mps 725 mmHg 75%
    21:00 +6°C° 0 mm 2 mps 726 mmHg 79%
    22:00 +6°C° 0 mm 2 mps 725 mmHg 82%
    23:00 +6°C° 0 mm 1 mps 725 mmHg 85%

    Tomorrow, 21 March, Thursday

    Time Temperature Precipitation Wind Pressure Humidity
    00:00 +4°C° 0 mm 0 mps 725 mmHg 88%
    01:00 +4°C° 0 mm 0 mps 725 mmHg 89%
    02:00 +4°C° 0 mm 0 mps 724 mmHg 89%
    03:00 +3°C° 0 mm 0 mps 724 mmHg 90%
    04:00 +3°C° 0 mm 0 mps 724 mmHg 90%
    05:00 +3°C° 0 mm 0 mps 724 mmHg 90%
    06:00 +4°C° 0 mm 1 mps 724 mmHg 91%
    07:00 +6°C° 0 mm 1 mps 724 mmHg 84%
    08:00 +8°C° 0 mm 1 mps 725 mmHg 77%
    09:00 +10°C° 0 mm 1 mps 725 mmHg 70%
    10:00 +10°C° 0.1 mm 2 mps 725 mmHg 65%
    11:00 +12°C° 0.1 mm 2 mps 725 mmHg 61%
    12:00 +12°C° 0.1 mm 3 mps 725 mmHg 56%
    13:00 +12°C° 0.1 mm 4 mps 724 mmHg 54%
    14:00 +13°C° 0.1 mm 5 mps 724 mmHg 52%
    15:00 +13°C° 0.1 mm 5 mps 723 mmHg 51%
    16:00 +12°C° 0.1 mm 5 mps 723 mmHg 58%
    17:00 +10°C° 0.1 mm 5 mps 723 mmHg 66%
    18:00 +9°C° 0.1 mm 5 mps 723 mmHg 74%
    19:00 +8°C° 0 mm 4 mps 724 mmHg 80%
    20:00 +8°C° 0 mm 3 mps 724 mmHg 85%
    21:00 +8°C° 0 mm 1 mps 724 mmHg 91%
    22:00 +8°C° 0 mm 1 mps 724 mmHg 91%
    23:00 +8°C° 0 mm 1 mps 724 mmHg 92%

    Day after tomorrow, 22 March, Friday

    Time Temperature Precipitation Wind Pressure Humidity
    00:00 +7°C° 0 mm 0 mps 724 mmHg 92%
    01:00 +8°C° 0 mm 0 mps 724 mmHg 90%
    02:00 +8°C° 0 mm 0 mps 724 mmHg 89%
    03:00 +8°C° 0 mm 0 mps 724 mmHg 87%
    04:00 +8°C° 0 mm 1 mps 723 mmHg 90%
    05:00 +7°C° 0 mm 1 mps 723 mmHg 92%
    06:00 +6°C° 0 mm 1 mps 723 mmHg 94%
    07:00 +8°C° 0 mm 1 mps 723 mmHg 86%
    08:00 +9°C° 0 mm 2 mps 724 mmHg 78%
    09:00 +11°C° 0 mm 3 mps 724 mmHg 70%
    10:00 +13°C° 0 mm 3 mps 724 mmHg 63%
    11:00 +14°C° 0 mm 4 mps 724 mmHg 56%
    12:00 +17°C° 0 mm 4 mps 724 mmHg 48%
    13:00 +16°C° 0 mm 5 mps 723 mmHg 51%
    14:00 +16°C° 0 mm 6 mps 723 mmHg 53%
    15:00 +16°C° 0 mm 7 mps 722 mmHg 56%
    16:00 +15°C° 0 mm 6 mps 722 mmHg 61%
    17:00 +14°C° 0 mm 6 mps 722 mmHg 66%
    18:00 +13°C° 0 mm 5 mps 722 mmHg 70%
    19:00 +12°C° 0 mm 4 mps 722 mmHg 77%
    20:00 +11°C° 0 mm 3 mps 723 mmHg 84%
    21:00 +9°C° 0 mm 2 mps 723 mmHg 90%
    22:00 +9°C° 0 mm 2 mps 723 mmHg 91%
    23:00 +9°C° 0 mm 2 mps 723 mmHg 92%

    23 March, Saturday

    Time Temperature Precipitation Wind Pressure Humidity
    00:00 +9°C° 0 mm 1 mps 722 mmHg 93%
    01:00 +9°C° 0 mm 1 mps 722 mmHg 92%
    02:00 +9°C° 0 mm 1 mps 722 mmHg 92%
    03:00 +9°C° 0 mm 1 mps 721 mmHg 91%
    04:00 +8°C° 0 mm 2 mps 721 mmHg 90%
    05:00 +9°C° 0 mm 2 mps 721 mmHg 89%
    06:00 +9°C° 0 mm 3 mps 721 mmHg 87%
    07:00 +10°C° 0 mm 3 mps 722 mmHg 80%
    08:00 +12°C° 0 mm 3 mps 722 mmHg 72%
    09:00 +13°C° 0 mm 3 mps 722 mmHg 64%
    10:00 +15°C° 0 mm 4 mps 722 mmHg 57%
    11:00 +18°C° 0 mm 4 mps 722 mmHg 50%
    12:00 +19°C° 0 mm 4 mps 722 mmHg 43%
    13:00 +20°C° 0 mm 4 mps 722 mmHg 42%
    14:00 +20°C° 0 mm 5 mps 721 mmHg 41%
    15:00 +20°C° 0 mm 5 mps 720 mmHg 40%
    16:00 +19°C° 0.1 mm 5 mps 720 mmHg 48%
    17:00 +16°C° 0.1 mm 5 mps 720 mmHg 57%
    18:00 +14°C° 0.1 mm 5 mps 720 mmHg 66%
    19:00 +13°C° 0.2 mm 4 mps 720 mmHg 72%
    20:00 +12°C° 0.2 mm 3 mps 720 mmHg 79%
    21:00 +13°C° 0.2 mm 1 mps 721 mmHg 85%
    22:00 +13°C° 0 mm 1 mps 721 mmHg 84%
    23:00 +13°C° 0 mm 1 mps 721 mmHg 83%

    24 March, Sunday

    Time Temperature Precipitation Wind Pressure Humidity
    00:00 +13°C° 0 mm 1 mps 721 mmHg 82%
    01:00 +12°C° 0.1 mm 1 mps 720 mmHg 82%
    02:00 +12°C° 0.1 mm 1 mps 720 mmHg 82%
    03:00 +12°C° 0.1 mm 1 mps 720 mmHg 81%
    04:00 +12°C° 0.3 mm 1 mps 720 mmHg 82%
    05:00 +12°C° 0.3 mm 1 mps 720 mmHg 83%
    06:00 +12°C° 0.3 mm 1 mps 720 mmHg 83%
    07:00 +12°C° 0.4 mm 1 mps 720 mmHg 81%
    08:00 +13°C° 0.4 mm 1 mps 720 mmHg 79%
    09:00 +13°C° 0.4 mm 1 mps 721 mmHg 77%
    10:00 +14°C° 0.3 mm 2 mps 721 mmHg 76%
    11:00 +14°C° 0.3 mm 2 mps 721 mmHg 75%
    12:00 +13°C° 0.3 mm 3 mps 721 mmHg 74%
    13:00 +13°C° 0.5 mm 3 mps 720 mmHg 75%
    14:00 +14°C° 0.5 mm 4 mps 720 mmHg 76%
    15:00 +14°C° 0.5 mm 4 mps 720 mmHg 77%
    16:00 +13°C° 1.1 mm 4 mps 720 mmHg 82%
    17:00 +12°C° 1.1 mm 3 mps 720 mmHg 86%
    18:00 +12°C° 1.1 mm 3 mps 720 mmHg 91%
    19:00 +13°C° 1.9 mm 2 mps 720 mmHg 92%
    20:00 +12°C° 1.9 mm 2 mps 721 mmHg 94%
    21:00 +12°C° 1.9 mm 2 mps 721 mmHg 96%
    22:00 +12°C° 3.4 mm 2 mps 721 mmHg 96%
    23:00 +12°C° 3.4 mm 1 mps 721 mmHg 96%

    25 March, Monday

    Time Temperature Precipitation Wind Pressure Humidity
    00:00 +12°C° 3.4 mm 1 mps 721 mmHg 97%
    01:00 +12°C° 2.1 mm 1 mps 721 mmHg 97%
    02:00 +12°C° 2.1 mm 1 mps 721 mmHg 97%
    03:00 +12°C° 2.1 mm 1 mps 720 mmHg 97%
    04:00 +12°C° 0.7 mm 1 mps 721 mmHg 97%
    05:00 +12°C° 0.7 mm 1 mps 721 mmHg 97%
    06:00 +12°C° 0.7 mm 1 mps 721 mmHg 96%
    07:00 +12°C° 0.1 mm 1 mps 721 mmHg 93%
    08:00 +13°C° 0.1 mm 1 mps 721 mmHg 90%
    09:00 +13°C° 0.1 mm 2 mps 722 mmHg 87%
    10:00 +14°C° 0.1 mm 2 mps 722 mmHg 82%
    11:00 +15°C° 0.1 mm 2 mps 722 mmHg 77%
    12:00 +16°C° 0.1 mm 3 mps 722 mmHg 72%
    13:00 +17°C° 0.2 mm 4 mps 721 mmHg 70%
    14:00 +16°C° 0.2 mm 5 mps 721 mmHg 69%
    15:00 +16°C° 0.2 mm 6 mps 720 mmHg 67%
    16:00 +16°C° 0.1 mm 5 mps 720 mmHg 70%
    17:00 +15°C° 0.1 mm 4 mps 720 mmHg 73%
    18:00 +14°C° 0.1 mm 3 mps 720 mmHg 76%
    19:00 +13°C° 0.2 mm 3 mps 721 mmHg 81%
    20:00 +13°C° 0.2 mm 2 mps 721 mmHg 86%
    21:00 +12°C° 0.2 mm 1 mps 721 mmHg 90%
    22:00 +12°C° 0.4 mm 1 mps 721 mmHg 91%
    23:00 +12°C° 0.4 mm 1 mps 721 mmHg 91%
    Show more